DECAYED

STARLINK-1282, 45409 (Decayed)

Orbit data source: Space-Track

STARLINK-1282, 45409 was a payload satellite owned by SpaceX/Seattle (US) in LEO that was launched on Wed, 18 Mar 2020 UTC via an FALCON 9 launch vehicle from the Air Force Eastern Test Range (AFETR). Payload-class satellites include a variety of spacecraft equipped with specific instruments for various scientific and technological missions. These include communications satellites like Starlink; space stations such as the ISS; scientific satellites like the Hubble; Earth observation satellites from companies like Planet Labs, Umbra, and HawkEye 360; GPS; miniature CubeSats for education and research; and military/defense satellites.

Not visible in the next 10 days
Identifier
45409, 2020-019BB
Orbit
Decayed
Country
Flag of USUS
Related business
Manufacturer
SpaceX/Seattle
Mission
Decayed Commercial Communications
Bus & Motor
STARLINK, Unknown motor
Mass
260 kg wet, ~248 kg dry
Launch date (UTC)
2020-03-18 (7 years ago)
Launch vehicle
FALCON 9
Launch site
Air Force Eastern Test Range (AFETR)
Object type
Payload
Rocket body
Debris
Shape & HBR
Box + 1 Pan, 10.1 m
Radar Cross Section
13.562 m², Large (>1 m²)

Expand to show TLE details & history
Last TLE update: 1 year ago

TLE from 1 year ago
0 STARLINK-1282
1 45409U 20019BB  25116.35196707  .05013351  12267-4  52428-3 0  9991
2 45409  53.0240  66.5173 0001961 247.1120 256.2963 16.36946173282786
Epoch: 2025-04-26T08:26Z
TLE epoch observation values (Epoch: 2025-04-26T08:26:49.954Z)
Latitude
28.54537°
Longitude
-118.81628°
Altitude
175.707 km
Speed
7.805 km/s
True Right ascension
14h 49m 57s
True Declination
28° 23' 18"
Sunlit
Object was in full shadow at epoch
Visualization orbit readout
Latitude
Unknown
Longitude
Unknown
Altitude
Unknown
Speed
Unknown
Apparent Right ascension
Unknown
Apparent Declination
Unknown
Sunlit
N/A
Visualization observer readout
Local Sidereal Time
07:36:35
Azimuth
Unknown
Elevation
Unknown
Doppler factor
Unknown
Orbital elements
Apogee altitude
175.514 km
Perigee altitude
172.945 km
Semi-major axis
6,552.367 km
Eccentricity
0.0002
Inclination
53.024°
RAAN
66.5173°
Arg. of periapsis
247.112°
True anomaly
256.27447°
Mean anomaly
256.2963°
Eccentric anomaly
256.28538°
Mean motion
4.0921 °/min
Orbital period
87.97 mins
BSTAR
0.00052428
Loading maneuver chart data...
Computing Atmospheric mass density...

Documentation

Showing up to 5 results
|